Location: Zagreb
(45.8000°N, 16.0000°E)
Time: 10:14:06
(UTC+02:00)

ISS - Visible Passes

Search period start: 15 May 2021 00:00
Search period end: 25 May 2021 00:00
Orbit: 417 x 422 km, 51.6° (Epoch: 15 May)

Date Brightness Start Highest point End Pass type
(mag) Time Alt. Az. Time Alt. Az. Time Alt. Az.
15 May -1.9 00:28:39 10° WNW 00:31:43 31° N 00:34:48 10° ENE visible
15 May -2.0 02:05:58 10° NW 02:09:06 34° NNE 02:12:14 10° E visible
15 May -3.9 03:42:46 10° WNW 03:46:09 74° SSW 03:49:30 10° SE visible
15 May -3.9 22:03:51 10° SW 22:07:10 63° SSE 22:10:31 10° ENE visible
15 May -2.2 23:40:59 10° W 23:44:09 36° NNW 23:47:18 10° NE visible
16 May -1.8 01:18:28 10° WNW 01:21:31 30° N 01:24:34 10° ENE visible
16 May -3.6 02:55:18 10° WNW 02:58:41 75° NNE 03:02:04 10° ESE visible
16 May -2.3 04:32:42 10° W 04:35:11 19° SW 04:37:39 10° S visible
16 May -3.3 21:16:37 10° SW 21:19:46 40° SE 21:22:58 10° ENE visible
16 May -2.6 22:53:20 10° W 22:56:35 44° NNW 22:59:51 10° NE visible
17 May -1.7 00:30:55 10° WNW 00:33:55 29° N 00:36:55 10° ENE visible
17 May -3.0 02:07:51 10° WNW 02:11:11 53° NNE 02:14:31 10° E visible
17 May -3.0 03:45:03 11° W 03:47:53 29° SW 03:50:52 10° SSE visible
17 May -3.2 22:05:44 10° WSW 22:09:04 59° NNW 22:12:24 10° ENE visible
17 May -1.7 23:43:18 10° WNW 23:46:18 29° N 23:49:19 10° ENE visible
18 May -2.2 01:20:26 10° NW 01:22:52 35° NNW 01:22:52 35° NNW visible
18 May -3.7 21:18:12 10° WSW 21:21:34 85° NNW 21:24:57 10° ENE visible
18 May -1.8 22:55:39 10° WNW 22:58:42 31° N 23:01:46 10° ENE visible
19 May -2.1 00:32:57 10° NW 00:36:05 34° NNE 00:36:27 33° NNE visible
19 May -2.1 22:07:57 10° W 22:11:06 36° NNW 22:14:16 10° NE visible
19 May -1.9 23:45:26 10° WNW 23:48:29 30° N 23:50:16 19° ENE visible
20 May -1.3 01:22:16 10° WNW 01:23:11 17° WNW 01:23:11 17° WNW visible
20 May -2.5 21:20:17 10° W 21:23:31 44° NNW 21:26:47 10° NE visible
20 May -1.7 22:57:51 10° WNW 23:00:51 29° N 23:03:52 10° ENE visible
21 May -2.3 00:34:48 10° WNW 00:37:05 36° NW 00:37:05 36° NW visible
21 May -1.7 22:10:14 10° WNW 22:13:14 29° N 22:16:15 10° ENE visible
21 May -2.6 23:47:21 10° NW 23:50:35 41° NNE 23:51:02 38° NE visible
22 May -1.9 21:22:33 10° WNW 21:25:37 31° N 21:28:40 10° ENE visible
22 May -2.2 22:59:52 10° NW 23:02:59 34° NNE 23:05:00 18° ENE visible
23 May -1.6 00:36:39 10° WNW 00:37:56 21° WNW 00:37:56 21° WNW visible
23 May -1.9 22:12:19 10° WNW 22:15:22 30° N 22:18:24 10° ENE visible
23 May -3.2 23:49:09 10° WNW 23:51:57 56° NW 23:51:57 56° NW visible
24 May -1.8 21:24:44 10° WNW 21:27:44 29° N 21:30:44 10° ENE visible
24 May -3.2 23:01:41 10° WNW 23:05:00 54° NNE 23:05:58 38° ENE visible
